Flag for U.S.A. Weather past 2 weeks in Monticello, Kentucky, U.S.A.

Now
82 °F

Sunny.


Feels Like: 83 °F
Forecast: 62 / 89 °F
Wind: 12 mph from Southwest

Location: London-Corbin Airport-Magee Field

Current Time: Jul 26, 2014 at 3:48:00 PM

Latest Report: Jul 26, 2014 at 2:53 PM


Visibility: 10 mi

Pressure: 29.99 "Hg

Humidity: 55%

Dew point: 64 °F

Location of MonticelloLocation

Historic Weather in Monticello — Graph

°F

Monticello temperature yesterday

Maximum temperature yesterday: 79 °F (at 4:53 PM)
Minimum temperature yesterday: 59 °F (at 2:53 AM)
Average temperature yesterday: 67 °F

Past Weeks' High & Low Weather Summary

 TemperatureHumidityPressure
High91 °F (Jul 12, 5:53 PM)96% (Jul 25, 3:53 AM)30.20 "Hg (Jul 25, 3:53 AM)
Low55 °F (Jul 17, 4:53 AM)26% (Jul 12, 5:53 PM)29.85 "Hg (Jul 15, 4:53 AM)
Average73 °F73%30.04 "Hg
* Reported Jul 11 1:53 PM — Jul 26 1:53 PM, Monticello, Weather by CustomWeather, © 2014

Note: Actual official high and low records may vary slightly from our data, if they occured in-between our weather recording intervals... More about our weather records

Advertising

Monticello weather history for previous 24 hours

 ConditionsComfort  
Time TempWeatherWind HumidityBarometerVisibility
1:53 PM
Jul 26
80 °FSunny.8 mph58%30.00 "Hg10 mi
12:53 PM78 °FSunny.5 mph60%30.04 "Hg10 mi
11:53 AM77 °FScattered clouds.5 mph62%30.05 "Hg10 mi
10:53 AM75 °FPassing clouds.3 mph64%30.05 "Hg10 mi
9:53 AM73 °FSunny.6 mph69%30.04 "Hg10 mi
8:53 AM68 °FSunny.3 mph82%30.03 "Hg10 mi
7:53 AM64 °FSunny.3 mph90%30.03 "Hg7 mi
6:53 AM62 °FFog.No wind90%30.03 "Hg6 mi
5:53 AM62 °FFog.No wind90%30.02 "Hg5 mi
4:53 AM62 °FFog.No wind90%30.01 "Hg6 mi
3:53 AM64 °FFog.No wind87%30.01 "Hg6 mi
2:53 AM64 °FFog.No wind90%30.01 "Hg5 mi
1:53 AM65 °FFog.No wind87%30.03 "Hg6 mi
12:53 AM65 °FFog.No wind91%30.03 "Hg6 mi
11:53 PM
Jul 25
66 °FClear.No wind87%30.03 "Hg8 mi
10:53 PM69 °FClear.No wind76%30.02 "Hg10 mi
9:53 PM69 °FClear.3 mph81%30.01 "Hg10 mi
8:53 PM71 °FSunny.No wind73%29.99 "Hg10 mi
7:53 PM76 °FSunny.3 mph54%30.01 "Hg10 mi
6:53 PM77 °FSunny.5 mph48%30.03 "Hg10 mi
5:53 PM78 °FSunny.3 mph48%30.02 "Hg10 mi
4:53 PM79 °FPassing clouds.7 mph48%30.04 "Hg10 mi
3:53 PM77 °FPassing clouds.3 mph50%30.04 "Hg10 mi
Weather by CustomWeather, © 2014

See weather overviewHow to use our weather pages